Wind_Speed
21 21 20 19 18 18 17 17 18 17 16 16 16 15 15 15 14 15 15 16 16 17 18 19 20 20 21 21 20 20 20 20 19 19 19 19 20 22 23 26 28 31 34 36
22 21 19 18 17 16 16 16 15 14 14 14 13 12 12 12 12 13 14 15 16 17 19 19 20 20 20 20 20 20 20 19 18 17 17 16 17 18 19 21 24 27 31 33
21 19 18 17 16 15 14 13 13 12 12 11 10 9 10 10 11 12 13 14 15 17 18 19 20 21 20 20 20 21 20 18 17 16 15 14 14 15 16 18 21 24 26 29
20 18 16 15 13 12 12 11 10 9 8 8 7 7 9 9 10 11 12 14 15 16 18 19 20 20 21 21 21 21 19 18 17 16 15 14 13 13 13 15 17 19 23 26
18 16 14 13 11 10 9 8 7 5 5 4 5 6 8 9 10 11 12 13 15 16 18 19 20 20 21 21 21 20 20 19 18 17 16 15 13 12 13 13 14 16 18 21
16 14 12 10 9 7 6 4 3 2 2 3 5 6 7 8 10 11 12 13 14 16 17 19 20 20 21 21 21 20 20 20 20 19 17 16 15 13 13 12 13 14 15 18
14 12 10 9 7 5 3 1 1 2 2 3 4 5 7 8 10 11 12 13 15 16 17 18 19 20 21 21 21 21 21 21 20 20 19 18 16 15 14 13 13 13 13 15
12 11 9 8 6 4 3 3 3 3 3 3 4 5 7 8 10 11 12 13 15 15 16 17 19 20 21 22 21 21 21 21 21 21 20 19 18 17 16 15 14 13 13 12
11 10 8 7 6 5 5 5 5 5 4 4 4 5 7 8 10 11 12 14 15 15 16 17 18 20 21 22 22 22 22 22 22 22 21 20 20 19 18 16 15 14 13 12
11 10 9 8 7 6 6 6 6 5 4 4 4 5 6 8 10 11 12 13 14 15 16 17 18 19 20 22 22 23 23 23 23 23 23 22 21 20 20 19 18 17 15 13
11 10 9 8 7 7 7 6 6 5 4 4 4 5 6 7 9 11 12 13 14 15 16 17 18 19 20 21 22 23 24 24 24 24 24 23 23 22 21 20 19 18 17 15
11 10 9 8 8 7 7 6 5 5 4 4 4 5 6 7 9 10 11 12 13 14 15 16 17 18 19 20 21 22 23 24 24 24 24 24 24 23 22 22 20 20 18 17
11 10 10 9 8 7 7 6 5 4 4 3 4 5 6 8 8 10 11 12 13 14 15 16 17 18 19 20 21 22 23 23 24 24 25 25 25 24 24 23 22 21 21 19
11 10 10 9 8 7 6 5 4 3 3 3 4 5 6 7 8 9 11 12 13 14 15 15 16 17 19 20 21 22 22 23 23 24 25 25 25 25 25 24 24 23 22 21
11 10 9 8 7 6 5 4 3 2 2 2 3 4 5 6 7 8 10 11 12 13 14 15 16 17 18 19 20 21 22 23 23 24 24 25 25 25 26 25 25 24 24 23
10 9 8 7 6 5 4 3 2 2 1 1 1 3 4 5 6 7 9 10 11 13 14 15 16 17 17 18 20 21 22 23 23 24 25 25 25 25 26 26 26 25 25 25
10 9 8 6 6 5 4 3 2 1 1 1 2 3 4 5 6 7 8 10 11 12 14 15 15 16 17 18 19 20 21 22 23 24 24 25 25 26 26 27 27 27 26 26
10 8 7 7 6 6 5 4 3 3 3 3 4 4 5 6 7 9 10 11 12 13 14 15 16 17 18 18 19 20 21 22 23 23 24 25 25 26 26 27 28 28 28 27
9 9 8 8 7 6 6 6 6 6 6 6 6 7 8 8 9 10 11 12 13 14 15 16 17 17 18 19 20 20 21 22 22 23 24 25 25 25 26 27 28 29 29 28
10 9 9 9 9 9 8 8 8 8 8 8 9 9 10 11 12 12 13 14 15 16 16 17 17 18 19 20 20 21 21 22 22 23 24 24 25 25 26 27 27 28 29 29
11 11 11 11 10 10 10 10 10 10 11 11 11 12 12 13 14 14 15 16 16 17 17 18 19 19 20 20 21 21 22 22 22 23 23 24 25 25 26 26 27 27 28 28
13 13 12 12 12 11 12 12 12 13 13 14 14 14 15 15 16 16 17 17 18 18 19 20 20 20 21 21 21 22 22 22 23 23 24 24 25 25 25 26 26 26 26 27
15 15 15 15 15 14 14 14 15 15 15 16 16 16 17 17 17 18 18 18 19 19 20 20 21 21 21 22 22 22 23 23 23 24 24 24 25 25 25 25 25 26 26 25
17 17 17 16 16 16 17 17 17 17 17 18 18 18 18 18 19 19 19 20 20 21 21 21 22 22 23 23 24 24 24 24 24 25 25 25 25 25 25 25 25 25 25 25
20 20 19 19 19 19 19 19 19 19 19 19 19 20 20 20 20 21 21 22 22 22 23 23 24 24 25 25 25 25 25 25 25 26 26 25 25 25 25 24 24 24 24 24
23 23 23 23 22 22 22 22 22 22 21 21 21 21 22 22 23 23 23 24 24 25 26 26 27 28 28 28 28 27 27 26 26 27 27 26 26 25 25 24 24 24 24 23
Wind_Direction
235 241 248 256 263 271 280 288 295 301 306 311 314 316 322 327 333 336 340 342 343 344 343 341 338 336 334 333 332 329 324 320 313 304 295 287 279 272 266 262 257 254 252 250
233 239 247 255 264 273 282 290 297 303 309 313 318 323 330 338 343 346 347 349 350 350 349 349 347 345 343 341 339 336 333 329 325 319 308 298 288 278 271 267 262 257 253 251
233 240 247 255 265 274 283 292 298 305 311 317 325 335 344 351 354 355 356 357 356 354 354 354 353 352 350 348 347 345 342 340 337 333 325 312 301 290 281 274 268 262 256 252
230 238 247 256 265 275 283 289 297 306 315 328 341 350 357 359 3 4 4 1 360 359 358 358 356 355 354 354 353 353 352 351 348 344 340 331 319 308 298 287 277 268 259 254
229 238 246 254 263 270 278 287 298 311 328 348 3 4 7 11 12 9 5 3 2 2 1 1 1 1 0 360 0 1 1 360 358 354 350 345 337 325 314 303 291 279 268 260
227 234 241 248 256 262 269 280 303 342 13 28 22 19 20 19 16 10 6 5 5 4 4 4 5 6 6 5 6 6 7 6 4 3 359 355 349 340 331 320 308 294 279 269
223 228 232 239 242 237 238 229 111 71 65 47 36 33 31 23 16 13 11 10 8 7 7 8 9 9 9 9 10 10 10 10 10 9 7 3 358 351 343 334 325 313 297 280
217 219 222 222 215 205 186 152 127 112 97 73 51 45 34 26 21 19 17 14 12 12 10 11 11 11 11 13 14 14 14 13 12 11 11 9 5 360 353 346 338 330 317 300
208 210 207 200 192 182 160 143 130 119 105 81 61 49 37 28 24 22 19 18 18 18 16 15 15 15 16 17 19 19 17 16 16 14 13 11 8 5 0 355 347 339 328 317
199 198 193 186 178 164 151 139 131 122 105 80 56 38 29 25 23 21 20 21 22 22 20 20 19 19 19 21 22 21 20 18 17 16 15 13 10 8 4 359 354 348 338 328
188 188 185 179 171 160 150 139 128 116 100 76 49 34 27 22 20 20 22 23 23 23 23 22 21 21 21 21 21 21 20 19 19 17 16 15 13 10 7 3 359 355 349 338
181 179 177 172 164 156 148 138 129 120 102 72 50 38 30 24 23 25 26 25 24 24 23 22 21 20 21 21 20 19 19 19 18 17 17 15 14 12 10 8 4 360 356 349
173 171 167 163 160 153 146 137 128 115 96 69 48 39 35 33 32 31 30 28 26 24 23 21 20 20 19 19 18 18 17 17 17 17 17 16 15 13 11 9 7 3 359 353
167 164 165 163 160 155 148 141 131 117 92 67 49 42 38 35 33 31 29 26 25 23 22 21 20 19 17 17 16 16 16 15 15 14 14 14 15 14 12 10 8 5 2 358
163 162 163 163 162 160 156 151 142 129 102 76 51 38 32 28 25 23 21 19 18 18 18 17 15 15 14 14 13 13 13 13 13 12 12 12 12 12 11 10 8 6 3 0
165 164 164 168 169 169 167 162 156 151 140 65 15 11 9 9 8 8 7 7 8 9 8 8 7 7 7 7 8 8 9 9 10 10 10 10 9 9 9 9 8 6 4 2
172 173 176 180 182 185 191 199 200 209 240 291 322 333 338 344 347 349 351 352 353 354 356 357 358 358 359 360 0 1 2 3 5 6 6 7 7 7 7 7 6 5 4 2
181 185 190 197 204 215 225 231 240 252 268 284 299 311 319 324 328 331 335 337 339 342 344 346 348 349 349 351 352 353 354 356 357 359 1 2 3 4 4 4 5 5 4 3
196 201 207 214 222 230 236 245 254 262 271 282 291 298 304 312 316 320 324 327 329 332 334 336 338 340 341 343 344 346 347 349 351 353 355 357 358 358 359 1 2 3 4 4
213 217 222 228 235 241 248 254 260 267 273 279 287 293 299 304 309 314 317 320 322 325 328 330 332 334 335 336 338 339 341 343 345 346 349 351 353 354 355 356 358 0 2 4
225 229 234 239 244 249 253 257 262 267 273 279 286 291 296 301 305 309 312 315 317 320 323 325 327 329 330 332 333 335 336 338 339 340 342 344 347 349 351 353 355 357 360 2
234 237 241 246 250 253 256 261 264 269 274 279 284 289 293 297 301 304 307 310 313 315 317 319 321 323 325 326 328 330 332 334 336 337 338 339 341 343 346 349 351 353 356 358
241 243 247 251 255 259 260 263 267 271 275 280 284 288 292 295 299 302 305 308 310 312 314 316 318 319 321 322 323 326 328 329 331 333 334 335 336 338 340 343 346 349 351 353
245 248 252 255 258 261 263 266 270 274 277 281 284 287 291 294 298 301 303 305 308 310 311 313 315 316 317 318 319 321 323 324 325 326 328 330 332 334 335 337 340 343 345 348
250 253 256 258 261 263 265 268 271 274 276 279 282 286 289 292 295 297 300 302 304 307 309 310 311 312 313 314 314 316 318 318 318 319 320 322 325 327 329 331 333 336 339 342
253 256 258 260 262 264 265 268 270 273 275 277 280 283 286 289 292 295 297 300 302 303 305 306 307 308 308 308 309 311 312 313 313 313 314 315 316 318 321 323 325 328 331 334
Height
5889 5892 5893 5894 5894 5894 5894 5893 5891 5889 5887 5884 5882 5879 5876 5874 5871 5868 5864 5861 5858 5854 5850 5846 5842 5838 5834 5829 5825 5821 5817 5813 5809 5806 5804 5803 5802 5801 5801 5801 5802 5803 5804 5806
5886 5888 5889 5890 5890 5891 5890 5889 5888 5886 5883 5881 5879 5877 5874 5871 5869 5866 5863 5860 5856 5853 5849 5845 5840 5836 5831 5827 5823 5818 5814 5810 5806 5802 5800 5798 5796 5796 5795 5795 5795 5795 5796 5798
5882 5885 5885 5886 5887 5887 5887 5886 5884 5883 5881 5879 5877 5875 5873 5870 5867 5865 5862 5859 5855 5852 5848 5843 5839 5835 5830 5825 5821 5816 5812 5807 5804 5800 5797 5794 5792 5791 5790 5790 5789 5789 5789 5791
5878 5880 5882 5883 5884 5884 5883 5883 5881 5880 5878 5877 5876 5874 5872 5869 5866 5864 5861 5858 5855 5851 5847 5843 5839 5834 5829 5825 5820 5815 5810 5806 5802 5798 5795 5792 5789 5788 5786 5785 5784 5783 5783 5784
5876 5878 5880 5881 5881 5881 5881 5880 5879 5878 5876 5876 5874 5873 5872 5868 5866 5864 5861 5858 5855 5851 5847 5843 5838 5834 5829 5824 5819 5815 5810 5806 5801 5797 5793 5790 5787 5785 5783 5781 5780 5779 5778 5778
5874 5875 5877 5878 5878 5878 5878 5878 5877 5876 5876 5875 5874 5873 5871 5868 5866 5864 5861 5858 5854 5851 5847 5843 5838 5834 5829 5824 5819 5815 5810 5806 5801 5797 5793 5789 5786 5783 5781 5778 5776 5775 5773 5773
5872 5873 5875 5876 5876 5877 5877 5877 5877 5876 5875 5875 5873 5872 5871 5868 5866 5863 5861 5857 5854 5850 5847 5843 5838 5834 5830 5825 5820 5815 5810 5806 5801 5797 5793 5789 5785 5782 5779 5776 5774 5771 5769 5767
5870 5872 5873 5874 5874 5875 5875 5876 5876 5876 5875 5875 5873 5872 5871 5868 5866 5863 5860 5857 5854 5850 5847 5843 5839 5835 5830 5825 5820 5816 5811 5807 5802 5798 5793 5789 5785 5782 5778 5775 5772 5769 5766 5763
5868 5870 5871 5872 5873 5873 5874 5874 5875 5875 5874 5874 5873 5872 5870 5868 5866 5863 5860 5857 5854 5850 5847 5843 5839 5835 5831 5826 5821 5817 5812 5807 5803 5798 5794 5790 5785 5781 5778 5774 5770 5766 5763 5761
5866 5868 5869 5870 5871 5872 5873 5873 5874 5874 5874 5874 5873 5872 5870 5868 5866 5863 5860 5857 5854 5851 5847 5844 5840 5836 5832 5828 5823 5818 5814 5809 5804 5799 5795 5790 5786 5781 5777 5773 5769 5765 5761 5758
5865 5867 5869 5870 5870 5871 5873 5873 5873 5873 5873 5873 5872 5874 5870 5868 5866 5863 5860 5858 5855 5851 5848 5845 5841 5837 5833 5829 5825 5820 5815 5810 5805 5801 5796 5791 5786 5782 5777 5773 5768 5764 5760 5756
5864 5866 5867 5869 5870 5870 5871 5872 5873 5873 5873 5872 5872 5874 5869 5867 5865 5863 5860 5858 5855 5852 5849 5846 5842 5839 5835 5830 5826 5821 5817 5812 5807 5802 5797 5792 5787 5782 5777 5772 5767 5763 5759 5755
5863 5865 5867 5868 5871 5871 5871 5871 5872 5872 5872 5872 5872 5873 5869 5867 5865 5863 5861 5858 5855 5853 5850 5846 5843 5839 5836 5832 5827 5823 5818 5813 5808 5803 5798 5793 5788 5783 5777 5772 5767 5762 5758 5753
5863 5865 5867 5869 5869 5870 5870 5871 5871 5872 5871 5871 5871 5870 5869 5867 5865 5863 5861 5858 5856 5853 5850 5847 5844 5840 5837 5833 5828 5824 5819 5815 5810 5805 5800 5794 5789 5783 5778 5772 5767 5762 5757 5752
5862 5864 5866 5867 5868 5869 5870 5870 5871 5871 5871 5871 5870 5869 5868 5867 5865 5863 5861 5859 5856 5854 5851 5848 5844 5841 5837 5833 5829 5825 5820 5816 5811 5806 5800 5795 5790 5784 5779 5773 5768 5762 5757 5751
5862 5864 5865 5867 5867 5868 5869 5870 5870 5870 5870 5870 5869 5869 5867 5866 5864 5863 5861 5859 5856 5854 5851 5848 5844 5841 5837 5834 5830 5826 5821 5817 5812 5807 5801 5796 5791 5785 5780 5774 5768 5762 5756 5750
5861 5863 5865 5866 5867 5867 5869 5869 5869 5869 5869 5869 5868 5868 5866 5865 5864 5862 5860 5858 5856 5853 5850 5847 5844 5841 5837 5833 5830 5825 5821 5817 5812 5807 5802 5797 5791 5786 5780 5774 5768 5762 5756 5750
5861 5862 5863 5865 5866 5867 5869 5867 5868 5868 5868 5867 5867 5866 5865 5864 5862 5861 5859 5857 5854 5852 5849 5846 5843 5840 5836 5833 5829 5825 5821 5816 5812 5807 5802 5797 5791 5786 5781 5775 5769 5762 5756 5749
5860 5861 5862 5863 5864 5865 5866 5865 5865 5866 5866 5865 5865 5864 5863 5862 5860 5859 5857 5855 5852 5850 5847 5844 5841 5838 5835 5831 5827 5824 5820 5815 5811 5806 5801 5796 5791 5786 5780 5775 5769 5763 5756 5749
5858 5859 5860 5861 5862 5863 5864 5863 5863 5864 5863 5863 5862 5861 5860 5859 5858 5857 5854 5852 5850 5848 5845 5842 5839 5836 5833 5829 5826 5822 5818 5814 5810 5805 5800 5796 5790 5785 5780 5774 5769 5763 5756 5750
5855 5856 5857 5858 5858 5859 5860 5859 5860 5861 5861 5859 5858 5858 5857 5856 5855 5853 5851 5849 5847 5845 5842 5839 5836 5833 5830 5827 5823 5819 5816 5812 5808 5803 5799 5794 5789 5784 5779 5774 5768 5763 5757 5751
5852 5853 5853 5854 5855 5858 5856 5855 5856 5856 5856 5855 5854 5854 5853 5852 5850 5849 5847 5845 5843 5841 5838 5836 5833 5830 5827 5823 5820 5817 5813 5809 5805 5801 5797 5792 5788 5783 5778 5773 5768 5762 5757 5751
5848 5849 5849 5851 5853 5852 5851 5851 5851 5851 5851 5850 5850 5849 5848 5847 5846 5844 5843 5841 5839 5836 5834 5831 5828 5826 5823 5820 5816 5813 5810 5806 5802 5798 5794 5790 5786 5781 5777 5772 5767 5762 5757 5752
5843 5843 5844 5845 5845 5846 5846 5846 5846 5846 5845 5845 5844 5844 5843 5842 5840 5839 5837 5835 5834 5831 5829 5827 5824 5821 5818 5815 5812 5809 5806 5802 5798 5795 5791 5787 5783 5778 5774 5770 5765 5761 5756 5751
5837 5837 5838 5839 5840 5840 5840 5840 5840 5840 5839 5839 5839 5838 5837 5836 5835 5833 5832 5830 5828 5826 5823 5821 5818 5815 5813 5809 5806 5804 5801 5797 5794 5790 5786 5783 5779 5775 5771 5767 5763 5759 5754 5750
5830 5831 5832 5833 5833 5834 5834 5834 5833 5833 5833 5833 5832 5831 5830 5829 5828 5827 5825 5823 5821 5819 5817 5815 5812 5809 5806 5803 5800 5797 5795 5791 5788 5784 5781 5777 5774 5771 5767 5763 5760 5756 5752 5748